This demonstration page uses our WeatherBlox Daily Observations layout. Learn more.

Left ArrowRight Arrow

Hourly Observations for April 22, 2015

Temp ( °F °C ) Dew Point ( °F °C ) Humidity (%) Winds ( mph kmh ) Pressure ( in mb ) Visibility ( mi km ) Precip ( " mm )
12:53 am 00:53 Cloudy with Light Rain 55 12.8 39 3.9 55 55 W 8 13 29.73 1007 10 16.0934 0 0.0254
1:53 am 01:53 Cloudy with Light Rain 51 10.6 36 2.2 56 56 NNW 15 24 29.74 1007 10 16.0934 0 0.0254
2:53 am 02:53 Cloudy 46 7.8 42 5.6 86 86 Calm 29.74 1007 10 16.0934 0.03 0.762
3:53 am 03:53 Cloudy with Light Rain 47 8.3 44 6.7 90 90 Calm 29.73 1007 10 16.0934 0.01 0.254
4:53 am 04:53 Cloudy 45 7.2 41 5 86 86 NE 6 9 29.73 1007 10 16.0934 0.03 0.762
5:53 am 05:53 Cloudy with Light Rain 44 6.7 43 6.1 96 96 NNE 3 6 29.74 1007 10 16.0934 0.06 1.524
6:53 am 06:53 Cloudy with Rain 42 5.6 41 5 96 96 NW 5 7 29.78 1008 4 6.43736 0.1 2.54
7:01 am 07:01 Cloudy with Light Rain 42 5.6 41 5 96 96 Calm 29.8 1009 8 12.87472 0 0.0254
7:46 am 07:46 Cloudy with Light Rain 42 5.6 41 5 96 96 WSW 6 9 29.8 1009 7 11.26538 0.03 0.762
7:53 am 07:53 Cloudy with Light Rain 42 5.6 41 5 96 96 WSW 7 11 29.79 1009 8 12.87472 0.03 0.762
8:02 am 08:02 Cloudy with Light Rain 43 6.1 40 4.4 89 89 W 8 13 29.83 1010 8 12.87472 0 0.0254
8:11 am 08:11 Cloudy with Light Rain 42 5.6 41 5 96 96 W 7 11 29.83 1010 5 8.0467 0.01 0.254
8:53 am 08:53 Cloudy with Light Rain 43 6.1 40 4.4 89 89 W 7 11 29.79 1009 10 16.0934 0.02 0.508
9:53 am 09:53 Mostly Cloudy 47 8.3 40 4.4 77 77 W 12 19 29.8 1009 10 16.0934 0 0.0254
10:30 am 10:30 Mostly Cloudy 48 8.9 36 2.2 63 63 W 16 26 29.83 1010 10 16.0934 0 0
10:53 am 10:53 Mostly Cloudy 48 8.9 35 1.7 61 61 W 14 22 29.81 1009 10 16.0934 0 0
11:53 am 11:53 Mostly Sunny 51 10.6 32 0 48 48 W 21 33 29.82 1010 10 16.0934 0 0
12:53 pm 12:53 Sunny 52 11.1 32 0 47 47 WNW 21 33 29.84 1011 10 16.0934 0 0
1:53 pm 13:53 Mostly Cloudy 51 10.6 31 -0.6 46 46 W 18 30 29.85 1011 10 16.0934 0 0
2:53 pm 14:53 Partly Cloudy 53 11.7 32 0 45 45 W 13 20 29.85 1011 10 16.0934 0 0
3:53 pm 15:53 Mostly Sunny 52 11.1 29 -1.7 41 41 WNW 24 39 29.86 1011 10 16.0934 0 0.0254
4:53 pm 16:53 Sunny 52 11.1 30 -1.1 43 43 WNW 16 26 29.87 1012 10 16.0934 0 0.0254
5:53 pm 17:53 Partly Cloudy 50 10 28 -2.2 43 43 WNW 17 28 29.9 1013 10 16.0934 0 0
6:53 pm 18:53 Mostly Sunny 49 9.4 27 -2.8 43 43 WNW 18 30 29.93 1013 10 16.0934 0 0
7:53 pm 19:53 Mostly Sunny 48 8.9 27 -2.8 44 44 W 8 13 29.92 1013 10 16.0934 0 0
8:53 pm 20:53 Clear 47 8.3 26 -3.3 44 44 W 6 9 29.92 1013 10 16.0934 0 0
9:53 pm 21:53 Clear 41 5 31 -0.6 67 67 Calm 29.93 1014 10 16.0934 0 0
10:53 pm 22:53 Cloudy 40 4.4 34 1.1 79 79 Calm 29.93 1014 10 16.0934 0 0
11:53 pm 23:53 Mostly Clear 38 3.3 33 0.6 83 83 W 5 7 29.93 1014 10 16.0934 0 0

Powered by AerisWeather